Year,Month,Day,Hour,Minute,Value (Times are PST for temperature in C)
2009,04,03,00,00,6.00
2009,04,03,00,01,6.00
2009,04,03,00,02,6.00
2009,04,03,00,03,6.00
2009,04,03,00,04,6.00
2009,04,03,00,05,6.00
2009,04,03,00,06,6.00
2009,04,03,00,07,6.00
2009,04,03,00,08,6.00
2009,04,03,00,09,5.90
2009,04,03,00,10,5.90
2009,04,03,00,11,5.90
2009,04,03,00,12,5.90
2009,04,03,00,13,5.90
2009,04,03,00,14,5.90
2009,04,03,00,15,5.90
2009,04,03,00,16,5.90
2009,04,03,00,17,5.90
2009,04,03,00,18,5.90
2009,04,03,00,19,5.90
2009,04,03,00,20,5.90
2009,04,03,00,21,5.80
2009,04,03,00,22,5.80
2009,04,03,00,23,5.70
2009,04,03,00,24,5.70
2009,04,03,00,25,5.70
2009,04,03,00,26,5.70
2009,04,03,00,27,5.70
2009,04,03,00,28,5.70
2009,04,03,00,29,5.70
2009,04,03,00,30,5.70
2009,04,03,00,31,5.70
2009,04,03,00,32,5.70
2009,04,03,00,33,5.70
2009,04,03,00,34,5.60
2009,04,03,00,35,5.60
2009,04,03,00,36,5.60
2009,04,03,00,37,5.60
2009,04,03,00,38,5.60
2009,04,03,00,39,5.60
2009,04,03,00,40,5.60
2009,04,03,00,41,5.60
2009,04,03,00,42,5.60
2009,04,03,00,43,5.60
2009,04,03,00,44,5.60
2009,04,03,00,45,5.60
2009,04,03,00,46,5.60
2009,04,03,00,47,5.60
2009,04,03,00,48,5.60
2009,04,03,00,49,5.50
2009,04,03,00,50,5.50
2009,04,03,00,51,5.50
2009,04,03,00,52,5.50
2009,04,03,00,53,5.40
2009,04,03,00,54,5.40
2009,04,03,00,55,5.40
2009,04,03,00,56,5.40
2009,04,03,00,57,5.40
2009,04,03,00,58,5.40
2009,04,03,00,59,5.40
2009,04,03,01,00,5.40
2009,04,03,01,01,5.40
2009,04,03,01,02,5.40
2009,04,03,01,03,5.40
2009,04,03,01,04,5.40
2009,04,03,01,05,5.40
2009,04,03,01,06,5.40
2009,04,03,01,07,5.40
2009,04,03,01,08,5.40
2009,04,03,01,09,5.40
2009,04,03,01,10,5.40
2009,04,03,01,11,5.40
2009,04,03,01,12,5.40
2009,04,03,01,13,5.40
2009,04,03,01,14,5.40
2009,04,03,01,15,5.30
2009,04,03,01,16,5.30
2009,04,03,01,17,5.30
2009,04,03,01,18,5.30
2009,04,03,01,19,5.30
2009,04,03,01,20,5.30
2009,04,03,01,21,5.30
2009,04,03,01,22,5.30
2009,04,03,01,23,5.30
2009,04,03,01,24,5.30
2009,04,03,01,25,5.30
2009,04,03,01,26,5.30
2009,04,03,01,27,5.30
2009,04,03,01,28,5.30
2009,04,03,01,29,5.30
2009,04,03,01,30,5.30
2009,04,03,01,31,5.40
2009,04,03,01,32,5.40
2009,04,03,01,33,5.40
2009,04,03,01,34,5.40
2009,04,03,01,35,5.40
2009,04,03,01,36,5.40
2009,04,03,01,37,5.40
2009,04,03,01,38,5.40
2009,04,03,01,39,5.40
2009,04,03,01,40,5.40
2009,04,03,01,41,5.40
2009,04,03,01,42,5.40
2009,04,03,01,43,5.40
2009,04,03,01,44,5.40
2009,04,03,01,45,5.40
2009,04,03,01,46,5.40
2009,04,03,01,47,5.40
2009,04,03,01,48,5.40
2009,04,03,01,49,5.40
2009,04,03,01,50,5.40
2009,04,03,01,51,5.40
2009,04,03,01,52,5.40
2009,04,03,01,53,5.40
2009,04,03,01,54,5.40
2009,04,03,01,55,5.40
2009,04,03,01,56,5.40
2009,04,03,01,57,5.40
2009,04,03,01,58,5.40
2009,04,03,01,59,5.40
2009,04,03,02,00,5.40
2009,04,03,02,01,5.40
2009,04,03,02,02,5.40
2009,04,03,02,03,5.40
2009,04,03,02,04,5.30
2009,04,03,02,05,5.30
2009,04,03,02,06,5.30
2009,04,03,02,07,5.30
2009,04,03,02,08,5.30
2009,04,03,02,09,5.30
2009,04,03,02,10,5.30
2009,04,03,02,11,5.30
2009,04,03,02,12,5.30
2009,04,03,02,13,5.30
2009,04,03,02,14,5.30
2009,04,03,02,15,5.30
2009,04,03,02,16,5.30
2009,04,03,02,17,5.30
2009,04,03,02,18,5.30
2009,04,03,02,19,5.30
2009,04,03,02,20,5.30
2009,04,03,02,21,5.30
2009,04,03,02,22,5.30
2009,04,03,02,23,5.30
2009,04,03,02,24,5.20
2009,04,03,02,25,5.20
2009,04,03,02,26,5.20
2009,04,03,02,27,5.20
2009,04,03,02,28,5.20
2009,04,03,02,29,5.20
2009,04,03,02,30,5.20
2009,04,03,02,31,5.30
2009,04,03,02,32,5.30
2009,04,03,02,33,5.20
2009,04,03,02,34,5.20
2009,04,03,02,35,5.20
2009,04,03,02,36,5.20
2009,04,03,02,37,5.20
2009,04,03,02,38,5.20
2009,04,03,02,39,5.20
2009,04,03,02,40,5.20
2009,04,03,02,41,5.20
2009,04,03,02,42,5.20
2009,04,03,02,43,5.20
2009,04,03,02,44,5.20
2009,04,03,02,45,5.20
2009,04,03,02,46,5.20
2009,04,03,02,47,5.20
2009,04,03,02,48,5.20
2009,04,03,02,49,5.20
2009,04,03,02,50,5.20
2009,04,03,02,51,5.20
2009,04,03,02,52,5.20
2009,04,03,02,53,5.20
2009,04,03,02,54,5.20
2009,04,03,02,55,5.20
2009,04,03,02,56,5.20
2009,04,03,02,57,5.20
2009,04,03,02,58,5.20
2009,04,03,02,59,5.20
2009,04,03,03,00,5.20
2009,04,03,03,01,5.20
2009,04,03,03,02,5.20
2009,04,03,03,03,5.20
2009,04,03,03,04,5.20
2009,04,03,03,05,5.20
2009,04,03,03,06,5.20
2009,04,03,03,07,5.10
2009,04,03,03,08,5.10
2009,04,03,03,09,5.10
2009,04,03,03,10,5.10
2009,04,03,03,11,5.10
2009,04,03,03,12,5.10
2009,04,03,03,13,5.10
2009,04,03,03,14,5.10
2009,04,03,03,15,5.10
2009,04,03,03,16,5.10
2009,04,03,03,17,5.10
2009,04,03,03,18,5.10
2009,04,03,03,19,5.10
2009,04,03,03,20,5.10
2009,04,03,03,21,5.10
2009,04,03,03,22,5.10
2009,04,03,03,23,5.10
2009,04,03,03,24,5.10
2009,04,03,03,25,5.10
2009,04,03,03,26,5.10
2009,04,03,03,27,5.10
2009,04,03,03,28,5.10
2009,04,03,03,29,5.10
2009,04,03,03,30,5.10
2009,04,03,03,31,5.10
2009,04,03,03,32,5.10
2009,04,03,03,33,5.00
2009,04,03,03,34,4.90
2009,04,03,03,35,4.90
2009,04,03,03,36,4.80
2009,04,03,03,37,4.80
2009,04,03,03,38,4.70
2009,04,03,03,39,4.70
2009,04,03,03,40,4.60
2009,04,03,03,41,4.60
2009,04,03,03,42,4.60
2009,04,03,03,43,4.50
2009,04,03,03,44,4.50
2009,04,03,03,45,4.40
2009,04,03,03,46,4.40
2009,04,03,03,47,4.30
2009,04,03,03,48,4.30
2009,04,03,03,49,4.30
2009,04,03,03,50,4.30
2009,04,03,03,51,4.20
2009,04,03,03,52,4.20
2009,04,03,03,53,4.20
2009,04,03,03,54,4.20
2009,04,03,03,55,4.20
2009,04,03,03,56,4.20
2009,04,03,03,57,4.20
2009,04,03,03,58,4.20
2009,04,03,03,59,4.20
2009,04,03,04,00,4.20
2009,04,03,04,01,4.20
2009,04,03,04,02,4.10
2009,04,03,04,03,4.10
2009,04,03,04,04,4.10
2009,04,03,04,05,4.00
2009,04,03,04,06,4.00
2009,04,03,04,07,4.00
2009,04,03,04,08,3.90
2009,04,03,04,09,3.90
2009,04,03,04,10,3.80
2009,04,03,04,11,3.80
2009,04,03,04,12,3.80
2009,04,03,04,13,3.70
2009,04,03,04,14,3.70
2009,04,03,04,15,3.60
2009,04,03,04,16,3.60
2009,04,03,04,17,3.50
2009,04,03,04,18,3.50
2009,04,03,04,19,3.40
2009,04,03,04,20,3.40
2009,04,03,04,21,3.30
2009,04,03,04,22,3.30
2009,04,03,04,23,3.20
2009,04,03,04,24,3.20
2009,04,03,04,25,3.10
2009,04,03,04,26,3.10
2009,04,03,04,27,3.10
2009,04,03,04,28,3.10
2009,04,03,04,29,2.90
2009,04,03,04,30,2.90
2009,04,03,04,31,2.90
2009,04,03,04,32,2.80
2009,04,03,04,33,2.80
2009,04,03,04,34,2.80
2009,04,03,04,35,2.70
2009,04,03,04,36,2.80
2009,04,03,04,37,2.80
2009,04,03,04,38,2.90
2009,04,03,04,39,2.90
2009,04,03,04,40,2.90
2009,04,03,04,41,3.10
2009,04,03,04,42,3.10
2009,04,03,04,43,3.10
2009,04,03,04,44,3.10
2009,04,03,04,45,3.10
2009,04,03,04,46,3.10
2009,04,03,04,47,3.10
2009,04,03,04,48,3.20
2009,04,03,04,49,3.20
2009,04,03,04,50,3.20
2009,04,03,04,51,3.30
2009,04,03,04,52,3.30
2009,04,03,04,53,3.30
2009,04,03,04,54,3.40
2009,04,03,04,55,3.40
2009,04,03,04,56,3.40
2009,04,03,04,57,3.40
2009,04,03,04,58,3.50
2009,04,03,04,59,3.50
2009,04,03,05,00,3.60
2009,04,03,05,01,3.70
2009,04,03,05,02,3.70
2009,04,03,05,03,3.70
2009,04,03,05,04,3.70
2009,04,03,05,05,3.70
2009,04,03,05,06,3.70
2009,04,03,05,07,3.70
2009,04,03,05,08,3.60
2009,04,03,05,09,3.60
2009,04,03,05,10,3.50
2009,04,03,05,11,3.40
2009,04,03,05,12,3.30
2009,04,03,05,13,3.30
2009,04,03,05,14,3.20
2009,04,03,05,15,3.10
2009,04,03,05,16,3.00
2009,04,03,05,17,2.90
2009,04,03,05,18,2.80
2009,04,03,05,19,2.80
2009,04,03,05,20,2.70
2009,04,03,05,21,2.60
2009,04,03,05,22,2.50
2009,04,03,05,23,2.50
2009,04,03,05,24,2.40
2009,04,03,05,25,2.30
2009,04,03,05,26,2.30
2009,04,03,05,27,2.20
2009,04,03,05,28,2.20
2009,04,03,05,29,2.20
2009,04,03,05,30,2.10
2009,04,03,05,31,2.00
2009,04,03,05,32,2.00
2009,04,03,05,33,1.90
2009,04,03,05,34,1.80
2009,04,03,05,35,1.80
2009,04,03,05,36,1.80
2009,04,03,05,37,1.80
2009,04,03,05,38,1.70
2009,04,03,05,39,1.70
2009,04,03,05,40,1.70
2009,04,03,05,41,1.70
2009,04,03,05,42,1.60
2009,04,03,05,43,1.60
2009,04,03,05,44,1.60
2009,04,03,05,45,1.50
2009,04,03,05,46,1.50
2009,04,03,05,47,1.50
2009,04,03,05,48,1.40
2009,04,03,05,49,1.40
2009,04,03,05,50,1.40
2009,04,03,05,51,1.40
2009,04,03,05,52,1.30
2009,04,03,05,53,1.30
2009,04,03,05,54,1.20
2009,04,03,05,55,1.20
2009,04,03,05,56,1.10
2009,04,03,05,57,1.00
2009,04,03,05,58,1.00
2009,04,03,05,59,1.00
2009,04,03,06,00,1.00
2009,04,03,06,01,1.00
2009,04,03,06,02,1.00
2009,04,03,06,03,0.90
2009,04,03,06,04,0.90
2009,04,03,06,05,0.90
2009,04,03,06,06,0.90
2009,04,03,06,07,1.00
2009,04,03,06,08,1.00
2009,04,03,06,09,1.00
2009,04,03,06,10,1.00
2009,04,03,06,11,1.00
2009,04,03,06,12,1.00
2009,04,03,06,13,1.00
2009,04,03,06,14,1.00
2009,04,03,06,15,1.00
2009,04,03,06,16,1.00
2009,04,03,06,17,0.90
2009,04,03,06,18,0.90
2009,04,03,06,19,0.90
2009,04,03,06,20,0.90
2009,04,03,06,21,0.90
2009,04,03,06,22,0.90
2009,04,03,06,23,0.90
2009,04,03,06,24,0.90
2009,04,03,06,25,0.90
2009,04,03,06,26,0.90
2009,04,03,06,27,0.80
2009,04,03,06,28,0.80
2009,04,03,06,29,0.80
2009,04,03,06,30,0.80
2009,04,03,06,31,0.80
2009,04,03,06,32,0.80
2009,04,03,06,33,0.70
2009,04,03,06,34,0.70
2009,04,03,06,35,0.70
2009,04,03,06,36,0.60
2009,04,03,06,37,0.60
2009,04,03,06,38,0.60
2009,04,03,06,39,0.60
2009,04,03,06,40,0.50
2009,04,03,06,41,0.50
2009,04,03,06,42,0.50
2009,04,03,06,43,0.50
2009,04,03,06,44,0.50
2009,04,03,06,45,0.50
2009,04,03,06,46,0.50
2009,04,03,06,47,0.40
2009,04,03,06,48,0.40
2009,04,03,06,49,0.40
2009,04,03,06,50,0.40
2009,04,03,06,51,0.40
2009,04,03,06,52,0.40
2009,04,03,06,53,0.40
2009,04,03,06,54,0.40
2009,04,03,06,55,0.40
2009,04,03,06,56,0.40
2009,04,03,06,57,0.50
2009,04,03,06,58,0.50
2009,04,03,06,59,0.50
2009,04,03,07,00,0.50
2009,04,03,07,01,0.50
2009,04,03,07,02,0.50
2009,04,03,07,03,0.50
2009,04,03,07,04,0.50
2009,04,03,07,05,0.50
2009,04,03,07,06,0.50
2009,04,03,07,07,0.40
2009,04,03,07,08,0.40
2009,04,03,07,09,0.30
2009,04,03,07,10,0.20
2009,04,03,07,11,0.10
2009,04,03,07,12,0.10
2009,04,03,07,13,0.10
2009,04,03,07,14,0.10
2009,04,03,07,15,0.10
2009,04,03,07,16,0.10
2009,04,03,07,17,0.10
2009,04,03,07,18,0.20
2009,04,03,07,19,0.20
2009,04,03,07,20,0.20
2009,04,03,07,21,0.30
2009,04,03,07,22,0.40
2009,04,03,07,23,0.40
2009,04,03,07,24,0.50
2009,04,03,07,25,0.50
2009,04,03,07,26,0.60
2009,04,03,07,27,0.60
2009,04,03,07,28,0.70
2009,04,03,07,29,0.80
2009,04,03,07,30,0.80
2009,04,03,07,31,0.90
2009,04,03,07,32,0.90
2009,04,03,07,33,1.00
2009,04,03,07,34,1.00
2009,04,03,07,35,1.00
2009,04,03,07,36,1.00
2009,04,03,07,37,1.10
2009,04,03,07,38,1.10
2009,04,03,07,39,1.20
2009,04,03,07,40,1.30
2009,04,03,07,41,1.30
2009,04,03,07,42,1.30
2009,04,03,07,43,1.30
2009,04,03,07,44,1.30
2009,04,03,07,45,1.40
2009,04,03,07,46,1.50
2009,04,03,07,47,1.50
2009,04,03,07,48,1.60
2009,04,03,07,49,1.70
2009,04,03,07,50,1.70
2009,04,03,07,51,1.80
2009,04,03,07,52,1.90
2009,04,03,07,53,2.00
2009,04,03,07,54,2.00
2009,04,03,07,55,2.10
2009,04,03,07,56,2.20
2009,04,03,07,57,2.20
2009,04,03,07,58,2.20
2009,04,03,07,59,2.20
2009,04,03,08,00,2.30
2009,04,03,08,01,2.30
2009,04,03,08,02,2.40
2009,04,03,08,03,2.50
2009,04,03,08,04,2.50
2009,04,03,08,05,2.60
2009,04,03,08,06,2.70
2009,04,03,08,07,2.70
2009,04,03,08,08,2.70
2009,04,03,08,09,2.70
2009,04,03,08,10,2.70
2009,04,03,08,11,2.70
2009,04,03,08,12,2.70
2009,04,03,08,13,2.70
2009,04,03,08,14,2.70
2009,04,03,08,15,2.70
2009,04,03,08,16,2.70
2009,04,03,08,17,2.80
2009,04,03,08,18,2.80
2009,04,03,08,19,2.90
2009,04,03,08,20,2.90
2009,04,03,08,21,3.00
2009,04,03,08,22,3.10
2009,04,03,08,23,3.20
2009,04,03,08,24,3.30
2009,04,03,08,25,3.40
2009,04,03,08,26,3.60
2009,04,03,08,27,3.70
2009,04,03,08,28,3.80
2009,04,03,08,29,3.90
2009,04,03,08,30,4.00
2009,04,03,08,31,4.10
2009,04,03,08,32,4.20
2009,04,03,08,33,4.20
2009,04,03,08,34,4.30
2009,04,03,08,35,4.40
2009,04,03,08,36,4.50
2009,04,03,08,37,4.50
2009,04,03,08,38,4.60
2009,04,03,08,39,4.70
2009,04,03,08,40,4.90
2009,04,03,08,41,5.00
2009,04,03,08,42,5.10
2009,04,03,08,43,5.20
2009,04,03,08,44,5.30
2009,04,03,08,45,5.30
2009,04,03,08,46,5.40
2009,04,03,08,47,5.40
2009,04,03,08,48,5.50
2009,04,03,08,49,5.50
2009,04,03,08,50,5.60
2009,04,03,08,51,5.60
2009,04,03,08,52,5.60
2009,04,03,08,53,5.60
2009,04,03,08,54,5.60
2009,04,03,08,55,5.70
2009,04,03,08,56,5.70
2009,04,03,08,57,5.70
2009,04,03,08,58,5.70
2009,04,03,08,59,5.70
2009,04,03,09,00,5.70
2009,04,03,09,01,5.70
2009,04,03,09,02,5.60
2009,04,03,09,03,5.50
2009,04,03,09,04,5.50
2009,04,03,09,05,5.50
2009,04,03,09,06,5.40
2009,04,03,09,07,5.30
2009,04,03,09,08,5.30
2009,04,03,09,09,5.30
2009,04,03,09,10,5.20
2009,04,03,09,11,5.20
2009,04,03,09,12,5.10
2009,04,03,09,13,5.10
2009,04,03,09,14,5.10
2009,04,03,09,15,5.00
2009,04,03,09,16,5.00
2009,04,03,09,17,4.90
2009,04,03,09,18,4.90
2009,04,03,09,19,4.90
2009,04,03,09,20,4.90
2009,04,03,09,21,4.90
2009,04,03,09,22,5.10
2009,04,03,09,23,5.10
2009,04,03,09,24,5.10
2009,04,03,09,25,5.20
2009,04,03,09,26,5.30
2009,04,03,09,27,5.30
2009,04,03,09,28,5.30
2009,04,03,09,29,5.40
2009,04,03,09,30,5.40
2009,04,03,09,31,5.40
2009,04,03,09,32,5.40
2009,04,03,09,33,5.40
2009,04,03,09,34,5.50
2009,04,03,09,35,5.50
2009,04,03,09,36,5.60
2009,04,03,09,37,5.70
2009,04,03,09,38,5.70
2009,04,03,09,39,5.70
2009,04,03,09,40,5.70
2009,04,03,09,41,5.70
2009,04,03,09,42,5.80
2009,04,03,09,43,5.80
2009,04,03,09,44,5.70
2009,04,03,09,45,5.70
2009,04,03,09,46,5.70
2009,04,03,09,47,5.80
2009,04,03,09,48,5.70
2009,04,03,09,49,5.70
2009,04,03,09,50,5.70
2009,04,03,09,51,5.70
2009,04,03,09,52,5.70
2009,04,03,09,53,5.70
2009,04,03,09,54,5.70
2009,04,03,09,55,5.70
2009,04,03,09,56,5.70
2009,04,03,09,57,5.60
2009,04,03,09,58,5.60
2009,04,03,09,59,5.50
2009,04,03,10,00,5.50
2009,04,03,10,01,5.50
2009,04,03,10,02,5.50
2009,04,03,10,03,5.40
2009,04,03,10,04,5.40
2009,04,03,10,05,5.40
2009,04,03,10,06,5.40
2009,04,03,10,07,5.40
2009,04,03,10,08,5.40
2009,04,03,10,09,5.40
2009,04,03,10,10,5.40
2009,04,03,10,11,5.40
2009,04,03,10,12,5.40
2009,04,03,10,13,5.40
2009,04,03,10,14,5.30
2009,04,03,10,15,5.30
2009,04,03,10,16,5.40
2009,04,03,10,17,5.40
2009,04,03,10,18,5.40
2009,04,03,10,19,5.30
2009,04,03,10,20,5.40
2009,04,03,10,21,5.40
2009,04,03,10,22,5.40
2009,04,03,10,23,5.40
2009,04,03,10,24,5.50
2009,04,03,10,25,5.50
2009,04,03,10,26,5.60
2009,04,03,10,27,5.60
2009,04,03,10,28,5.70
2009,04,03,10,29,5.70
2009,04,03,10,30,5.70
2009,04,03,10,31,5.70
2009,04,03,10,32,5.70
2009,04,03,10,33,5.70
2009,04,03,10,34,5.70
2009,04,03,10,35,5.70
2009,04,03,10,36,5.70
2009,04,03,10,37,5.70
2009,04,03,10,38,5.70
2009,04,03,10,39,5.70
2009,04,03,10,40,5.70
2009,04,03,10,41,5.70
2009,04,03,10,42,5.70
2009,04,03,10,43,5.70
2009,04,03,10,44,5.80
2009,04,03,10,45,5.90
2009,04,03,10,46,5.90
2009,04,03,10,47,6.00
2009,04,03,10,48,6.00
2009,04,03,10,49,6.00
2009,04,03,10,50,5.90
2009,04,03,10,51,6.00
2009,04,03,10,52,6.00
2009,04,03,10,53,6.00
2009,04,03,10,54,6.10
2009,04,03,10,55,6.00
2009,04,03,10,56,6.00
2009,04,03,10,57,6.00
2009,04,03,10,58,6.00
2009,04,03,10,59,6.00
2009,04,03,11,00,6.10
2009,04,03,11,01,6.20
2009,04,03,11,02,6.20
2009,04,03,11,03,6.20
2009,04,03,11,04,6.20
2009,04,03,11,05,6.20
2009,04,03,11,06,6.20
2009,04,03,11,07,6.20
2009,04,03,11,08,6.20
2009,04,03,11,09,6.20
2009,04,03,11,10,6.20
2009,04,03,11,11,6.20
2009,04,03,11,12,6.20
2009,04,03,11,13,6.20
2009,04,03,11,14,6.30
2009,04,03,11,15,6.30
2009,04,03,11,16,6.40
2009,04,03,11,17,6.40
2009,04,03,11,18,6.50
2009,04,03,11,19,6.60
2009,04,03,11,20,6.60
2009,04,03,11,21,6.60
2009,04,03,11,22,6.60
2009,04,03,11,23,6.60
2009,04,03,11,24,6.60
2009,04,03,11,25,6.70
2009,04,03,11,26,6.60
2009,04,03,11,27,6.60
2009,04,03,11,28,6.60
2009,04,03,11,29,6.60
2009,04,03,11,30,6.60
2009,04,03,11,31,6.60
2009,04,03,11,32,6.60
2009,04,03,11,33,6.70
2009,04,03,11,34,6.70
2009,04,03,11,35,6.80
2009,04,03,11,36,6.80
2009,04,03,11,37,6.80
2009,04,03,11,38,6.80
2009,04,03,11,39,6.80
2009,04,03,11,40,6.80
2009,04,03,11,41,6.80
2009,04,03,11,42,6.80
2009,04,03,11,43,6.90
2009,04,03,11,44,7.00
2009,04,03,11,45,7.00
2009,04,03,11,46,7.00
2009,04,03,11,47,7.10
2009,04,03,11,48,7.20
2009,04,03,11,49,7.20
2009,04,03,11,50,7.20
2009,04,03,11,51,7.20
2009,04,03,11,52,7.20
2009,04,03,11,53,7.20
2009,04,03,11,54,7.20
2009,04,03,11,55,7.10
2009,04,03,11,56,7.10
2009,04,03,11,57,7.20
2009,04,03,11,58,7.20
2009,04,03,11,59,7.20
2009,04,03,12,00,7.20
2009,04,03,12,01,7.20
2009,04,03,12,02,7.20
2009,04,03,12,03,7.20
2009,04,03,12,04,7.20
2009,04,03,12,05,7.30
2009,04,03,12,06,7.30
2009,04,03,12,07,7.30
2009,04,03,12,08,7.30
2009,04,03,12,09,7.30
2009,04,03,12,10,7.30
2009,04,03,12,11,7.30
2009,04,03,12,12,7.30
2009,04,03,12,13,7.20
2009,04,03,12,14,7.20
2009,04,03,12,15,7.20
2009,04,03,12,16,7.20
2009,04,03,12,17,7.20
2009,04,03,12,18,7.20
2009,04,03,12,19,7.20
2009,04,03,12,20,7.30
2009,04,03,12,21,7.30
2009,04,03,12,22,7.30
2009,04,03,12,23,7.40
2009,04,03,12,24,7.50
2009,04,03,12,25,7.50
2009,04,03,12,26,7.50
2009,04,03,12,27,7.40
2009,04,03,12,28,7.40
2009,04,03,12,29,7.30
2009,04,03,12,30,7.30
2009,04,03,12,31,7.30
2009,04,03,12,32,7.30
2009,04,03,12,33,7.30
2009,04,03,12,34,7.40
2009,04,03,12,35,7.40
2009,04,03,12,36,7.50
2009,04,03,12,37,7.50
2009,04,03,12,38,7.60
2009,04,03,12,39,7.60
2009,04,03,12,40,7.60
2009,04,03,12,41,7.60
2009,04,03,12,42,7.60
2009,04,03,12,43,7.60
2009,04,03,12,44,7.70
2009,04,03,12,45,7.80
2009,04,03,12,46,7.80
2009,04,03,12,47,7.80
2009,04,03,12,48,7.80
2009,04,03,12,49,7.80
2009,04,03,12,50,7.80
2009,04,03,12,51,7.80
2009,04,03,12,52,7.80
2009,04,03,12,53,7.80
2009,04,03,12,54,7.80
2009,04,03,12,55,7.80
2009,04,03,12,56,7.90
2009,04,03,12,57,8.00
2009,04,03,12,58,8.00
2009,04,03,12,59,8.10
2009,04,03,13,00,8.10
2009,04,03,13,01,8.10
2009,04,03,13,02,8.10
2009,04,03,13,03,8.00
2009,04,03,13,04,8.00
2009,04,03,13,05,8.00
2009,04,03,13,06,8.10
2009,04,03,13,07,8.10
2009,04,03,13,08,8.20
2009,04,03,13,09,8.20
2009,04,03,13,10,8.20
2009,04,03,13,11,8.00
2009,04,03,13,12,7.90
2009,04,03,13,13,7.90
2009,04,03,13,14,7.90
2009,04,03,13,15,7.90
2009,04,03,13,16,7.80
2009,04,03,13,17,7.80
2009,04,03,13,18,7.90
2009,04,03,13,19,8.00
2009,04,03,13,20,8.20
2009,04,03,13,21,8.30
2009,04,03,13,22,8.50
2009,04,03,13,23,8.60
2009,04,03,13,24,8.70
2009,04,03,13,25,8.80
2009,04,03,13,26,8.90
2009,04,03,13,27,9.00
2009,04,03,13,28,9.00
2009,04,03,13,29,9.20
2009,04,03,13,30,9.30
2009,04,03,13,31,9.30
2009,04,03,13,32,9.20
2009,04,03,13,33,9.30
2009,04,03,13,34,9.30
2009,04,03,13,35,9.20
2009,04,03,13,36,9.20
2009,04,03,13,37,9.20
2009,04,03,13,38,9.20
2009,04,03,13,39,9.20
2009,04,03,13,40,9.40
2009,04,03,13,41,9.50
2009,04,03,13,42,9.70
2009,04,03,13,43,9.70
2009,04,03,13,44,9.60
2009,04,03,13,45,9.50
2009,04,03,13,46,9.50
2009,04,03,13,47,9.50
2009,04,03,13,48,9.40
2009,04,03,13,49,9.40
2009,04,03,13,50,9.40
2009,04,03,13,51,9.30
2009,04,03,13,52,9.40
2009,04,03,13,53,9.50
2009,04,03,13,54,9.40
2009,04,03,13,55,9.30
2009,04,03,13,56,9.10
2009,04,03,13,57,9.00
2009,04,03,13,58,9.00
2009,04,03,13,59,9.10
2009,04,03,14,00,9.10
2009,04,03,14,01,9.00
2009,04,03,14,02,8.90
2009,04,03,14,03,8.80
2009,04,03,14,04,8.70
2009,04,03,14,05,8.70
2009,04,03,14,06,8.70
2009,04,03,14,07,8.60
2009,04,03,14,08,8.50
2009,04,03,14,09,8.50
2009,04,03,14,10,8.60
2009,04,03,14,11,8.70
2009,04,03,14,12,8.70
2009,04,03,14,13,8.80
2009,04,03,14,14,8.90
2009,04,03,14,15,9.00
2009,04,03,14,16,9.10
2009,04,03,14,17,9.20
2009,04,03,14,18,9.20
2009,04,03,14,19,9.10
2009,04,03,14,20,8.90
2009,04,03,14,21,8.60
2009,04,03,14,22,8.50
2009,04,03,14,23,8.30
2009,04,03,14,24,8.20
2009,04,03,14,25,8.20
2009,04,03,14,26,8.20
2009,04,03,14,27,8.20
2009,04,03,14,28,8.20
2009,04,03,14,29,8.30
2009,04,03,14,30,8.30
2009,04,03,14,31,8.30
2009,04,03,14,32,8.40
2009,04,03,14,33,8.50
2009,04,03,14,34,8.50
2009,04,03,14,35,8.50
2009,04,03,14,36,8.40
2009,04,03,14,37,8.30
2009,04,03,14,38,8.20
2009,04,03,14,39,8.10
2009,04,03,14,40,8.10
2009,04,03,14,41,8.20
2009,04,03,14,42,8.20
2009,04,03,14,43,8.20
2009,04,03,14,44,8.30
2009,04,03,14,45,8.40
2009,04,03,14,46,8.50
2009,04,03,14,47,8.60
2009,04,03,14,48,8.60
2009,04,03,14,49,8.60
2009,04,03,14,50,8.60
2009,04,03,14,51,8.60
2009,04,03,14,52,8.50
2009,04,03,14,53,8.40
2009,04,03,14,54,8.30
2009,04,03,14,55,8.30
2009,04,03,14,56,8.20
2009,04,03,14,57,8.20
2009,04,03,14,58,8.20
2009,04,03,14,59,8.30
2009,04,03,15,00,8.40
2009,04,03,15,01,8.40
2009,04,03,15,02,8.40
2009,04,03,15,03,8.40
2009,04,03,15,04,8.40
2009,04,03,15,05,8.40
2009,04,03,15,06,8.40
2009,04,03,15,07,8.60
2009,04,03,15,08,8.70
2009,04,03,15,09,8.80
2009,04,03,15,10,8.80
2009,04,03,15,11,8.90
2009,04,03,15,12,8.90
2009,04,03,15,13,8.90
2009,04,03,15,14,9.00
2009,04,03,15,15,8.90
2009,04,03,15,16,8.90
2009,04,03,15,17,8.80
2009,04,03,15,18,8.70
2009,04,03,15,19,8.70
2009,04,03,15,20,8.70
2009,04,03,15,21,8.60
2009,04,03,15,22,8.60
2009,04,03,15,23,8.50
2009,04,03,15,24,8.60
2009,04,03,15,25,8.60
2009,04,03,15,26,8.60
2009,04,03,15,27,8.40
2009,04,03,15,28,8.30
2009,04,03,15,29,8.30
2009,04,03,15,30,8.40
2009,04,03,15,31,8.60
2009,04,03,15,32,8.70
2009,04,03,15,33,8.90
2009,04,03,15,34,8.90
2009,04,03,15,35,9.00
2009,04,03,15,36,9.00
2009,04,03,15,37,8.80
2009,04,03,15,38,8.90
2009,04,03,15,39,8.90
2009,04,03,15,40,8.80
2009,04,03,15,41,8.60
2009,04,03,15,42,8.50
2009,04,03,15,43,8.40
2009,04,03,15,44,8.40
2009,04,03,15,45,8.40
2009,04,03,15,46,8.50
2009,04,03,15,47,8.70
2009,04,03,15,48,8.80
2009,04,03,15,49,8.90
2009,04,03,15,50,8.90
2009,04,03,15,51,8.80
2009,04,03,15,52,8.80
2009,04,03,15,53,8.90
2009,04,03,15,54,8.90
2009,04,03,15,55,8.80
2009,04,03,15,56,8.80
2009,04,03,15,57,8.80
2009,04,03,15,58,8.90
2009,04,03,15,59,8.90
2009,04,03,16,00,9.00
2009,04,03,16,01,9.00
2009,04,03,16,02,9.10
2009,04,03,16,03,8.90
2009,04,03,16,04,8.70
2009,04,03,16,05,8.60
2009,04,03,16,06,8.50
2009,04,03,16,07,8.40
2009,04,03,16,08,8.30
2009,04,03,16,09,8.20
2009,04,03,16,10,8.30
2009,04,03,16,11,8.30
2009,04,03,16,12,8.30
2009,04,03,16,13,8.20
2009,04,03,16,14,8.20
2009,04,03,16,15,8.30
2009,04,03,16,16,8.40
2009,04,03,16,17,8.40
2009,04,03,16,18,8.40
2009,04,03,16,19,8.30
2009,04,03,16,20,8.20
2009,04,03,16,21,8.10
2009,04,03,16,22,8.00
2009,04,03,16,23,8.00
2009,04,03,16,24,8.00
2009,04,03,16,25,8.10
2009,04,03,16,26,8.10
2009,04,03,16,27,8.10
2009,04,03,16,28,8.10
2009,04,03,16,29,8.20
2009,04,03,16,30,8.40
2009,04,03,16,31,8.50
2009,04,03,16,32,8.60
2009,04,03,16,33,8.70
2009,04,03,16,34,8.80
2009,04,03,16,35,8.70
2009,04,03,16,36,8.70
2009,04,03,16,37,8.70
2009,04,03,16,38,8.70
2009,04,03,16,39,8.80
2009,04,03,16,40,8.80
2009,04,03,16,41,8.80
2009,04,03,16,42,8.80
2009,04,03,16,43,8.80
2009,04,03,16,44,8.80
2009,04,03,16,45,8.80
2009,04,03,16,46,8.60
2009,04,03,16,47,8.50
2009,04,03,16,48,8.50
2009,04,03,16,49,8.50
2009,04,03,16,50,8.50
2009,04,03,16,51,8.60
2009,04,03,16,52,8.70
2009,04,03,16,53,8.60
2009,04,03,16,54,8.50
2009,04,03,16,55,8.40
2009,04,03,16,56,8.40
2009,04,03,16,57,8.40
2009,04,03,16,58,8.50
2009,04,03,16,59,8.50
2009,04,03,17,00,8.50
2009,04,03,17,01,8.40
2009,04,03,17,02,8.40
2009,04,03,17,03,8.50
2009,04,03,17,04,8.50
2009,04,03,17,05,8.50
2009,04,03,17,06,8.40
2009,04,03,17,07,8.50
2009,04,03,17,08,8.40
2009,04,03,17,09,8.40
2009,04,03,17,10,8.50
2009,04,03,17,11,8.50
2009,04,03,17,12,8.40
2009,04,03,17,13,8.40
2009,04,03,17,14,8.50
2009,04,03,17,15,8.50
2009,04,03,17,16,8.50
2009,04,03,17,17,8.40
2009,04,03,17,18,8.50
2009,04,03,17,19,8.50
2009,04,03,17,20,8.40
2009,04,03,17,21,8.40
2009,04,03,17,22,8.30
2009,04,03,17,23,8.30
2009,04,03,17,24,8.30
2009,04,03,17,25,8.40
2009,04,03,17,26,8.40
2009,04,03,17,27,8.30
2009,04,03,17,28,8.20
2009,04,03,17,29,8.20
2009,04,03,17,30,8.20
2009,04,03,17,31,8.20
2009,04,03,17,32,8.20
2009,04,03,17,33,8.20
2009,04,03,17,34,8.20
2009,04,03,17,35,8.30
2009,04,03,17,36,8.30
2009,04,03,17,37,8.30
2009,04,03,17,38,8.30
2009,04,03,17,39,8.20
2009,04,03,17,40,8.20
2009,04,03,17,41,8.20
2009,04,03,17,42,8.20
2009,04,03,17,43,8.20
2009,04,03,17,44,8.20
2009,04,03,17,45,8.20
2009,04,03,17,46,8.20
2009,04,03,17,47,8.30
2009,04,03,17,48,8.30
2009,04,03,17,49,8.40
2009,04,03,17,50,8.50
2009,04,03,17,51,8.60
2009,04,03,17,52,8.70
2009,04,03,17,53,8.70
2009,04,03,17,54,8.70
2009,04,03,17,55,8.70
2009,04,03,17,56,8.60
2009,04,03,17,57,8.60
2009,04,03,17,58,8.60
2009,04,03,17,59,8.50
2009,04,03,18,00,8.40
2009,04,03,18,01,8.40
2009,04,03,18,02,8.30
2009,04,03,18,03,8.20
2009,04,03,18,04,8.20
2009,04,03,18,05,8.20
2009,04,03,18,06,8.20